PEGASUS DEB

Satellite information

Favourite Embed

Satellite Type and Status

DEBRISIN ORBIT

Key statistics

Satellite PEGASUS DEB at a glance.

Uptime

11477

Days in orbit

Revolutions

≈ 14.3

Per day

Orbit

LEO

Low Earth Orbit

Inclination

81.3

Latest

Satellite identification and parameters

Extended collection of information and parameters for PEGASUS DEB.

Object identification

Identified? True

Debris? True

Object name: PEGASUS DEB

International designator: 1994-029CY

Object number (NORAD): 24051

Object ID (CCSDS): 24051

Country: UNITED STATES OF AMERICA (US)

Current information (Y/N): Y

RCS size: SMALL

Orbital parameters

Period: 100.837 minutes

Inclination: 81.2872 deg

SMA: 7176.388 km

Apoapsis: 1052.049 km

Periapsis: 544.458 km

RAAN: 278.6426 deg

Eccentricy: 0.03536535

Argument of periapsis: 135.7342 deg

Mean anomaly: 305.8917 deg

Mean motion: 14.28051558 rev/day

Mean motion (dot): 0.00009359 rev/day2

B* drag term: 0.001913488 1/REarth

Two-line elements (TLE)

Creation date: Oct. 20, 2025, 2:10 a.m.

Reference frame: TEME

Reference center: EARTH

Epoch: Oct. 19, 2025, 10:13 p.m. UTC

TLE line 0: 0 PEGASUS DEB

TLE line 1: 1 24051U 94029CY 25292.92596227 .00009359 00000-0 19135-2 0 9995

TLE line 2: 2 24051 81.2872 278.6426 0353653 135.7342 305.8917 14.28051558482339

Live tracking on map

Real-time ground track for satellite PEGASUS DEB.

In-orbit conjunctions

A list of the most updated potential collisions computed for object PEGASUS DEB.

Target Orbit TCA Probability of collision Miss distance Type
SL-3 R/B LEO 2025-08-07 05:14:01 0.0002041811 227.0 (m) ROCKET BODY
CZ-6A DEB LEO 2025-02-16 19:12:21 0.0005152384 219.0 (m) DEBRIS
THOR ABLESTAR DEB LEO 2024-11-10 03:37:03 0.0002507402 178.0 (m) DEBRIS

Associated space launch

PEGASUS DEB was lifted into orbit during the mission ‘Pegasus HAPS | Space Test Experiments Platform 2 (STEP-2)’, on board a Pegasus HAPS space rocket.

The launch took place on May 19, 1994, 5:03 p.m. from Edwards Air Force Base.

For more information about the launch, click the button.

Launch to space Pegasus HAPS | Space Test Experiments Platform 2 (STEP-2)
Pegasus HAPS | Space Test Experiments Platform 2 (STEP-2)

Agency: N/A

Status: Launch Successful

Launch date: May 19, 1994, 5:03 p.m. UTC

Rocket: Pegasus HAPS

Launch pad: Edwards Air Force Base

Location: Air launch to orbit

...

Latest news about this satellite

There are no fresh news available about this satellite. Check back as we update our databases every day.


Newsletter sign-up

Weekly statistics, charts and insights to help you stay on top of the space industry.